STARLINK-33764, 63510

Orbit data source: Space-Track

STARLINK-33764, 63510 is a payload satellite owned by SpaceX/Seattle (US) in LEO that was launched on Mon, 07 Apr 2025 UTC via an FALCON 9 launch vehicle from the Air Force Western Test Range (AFWTR). Payload-class satellites include a variety of spacecraft equipped with specific instruments for various scientific and technological missions. These include communications satellites like Starlink; space stations such as the ISS; scientific satellites like the Hubble; Earth observation satellites from companies like Planet Labs, Umbra, and HawkEye 360; GPS; miniature CubeSats for education and research; and military/defense satellites.

Loading next visibility...
Identifier
63510, 2025-071T
Orbit
LEO
Country
Flag of USUS
Related business
Manufacturer
SpaceX/Seattle
Mission
Operational Commercial Communications
Bus & Motor
STARLINK V2MO, Unknown motor
Mass
575 kg wet, ~530 kg dry
Launch date (UTC)
2025-04-07 (1 year ago)
Launch vehicle
FALCON 9
Launch site
Air Force Western Test Range (AFWTR)
Object type
Payload
Rocket body
Debris
Shape & HBR
Box + 1 Pan, 17.7 m
Radar Cross Section
41.120 m², Large (>1 m²)

Expand to show TLE details & history
Last TLE update: 14 hours ago

TLE from 14 hours ago
0 STARLINK-33764
1 63510U 25071T   26262.81552580  .00004598  00000-0  14720-3 0  9995
2 63510  53.1586 316.6213 0001193  84.9608 275.1531 15.34389509 82490
Epoch: 2026-09-19T19:34Z
TLE epoch observation values (Epoch: 2026-09-19T19:34:21.429Z)
Latitude
0.00002°
Longitude
24.31338°
Altitude
463.562 km
Speed
7.636 km/s
True Right ascension
21h 06m 29s
True Declination
0° 00' 00"
Sunlit
Object was in full shadow at epoch
Visualization orbit readout
Latitude
Unknown
Longitude
Unknown
Altitude
Unknown
Speed
Unknown
Apparent Right ascension
Unknown
Apparent Declination
Unknown
Sunlit
N/A
Visualization observer readout
Local Sidereal Time
02:40:00
Azimuth
Unknown
Elevation
Unknown
Doppler factor
Unknown
Orbital elements
Apogee altitude
463.808 km
Perigee altitude
462.175 km
Semi-major axis
6,841.129 km
Eccentricity
0.00012
Inclination
53.1586°
RAAN
316.6213°
Arg. of periapsis
84.9608°
True anomaly
275.13948°
Mean anomaly
275.1531°
Eccentric anomaly
275.14629°
Mean motion
3.83576 °/min
Orbital period
93.85 mins
BSTAR
0.0001472
Loading maneuver chart data...
Computing Atmospheric mass density...
Loading historical data...
Loading historical data...
Loading historical data...
Loading historical data...
Loading historical data...
Loading historical data...
Loading historical data...

Documentation

Showing up to 5 results
|